Погода в Аланье

Турция     36°33′05″N   32°00′34″E
темп.,
°C
ветер,
м/с
пор.,
м/с
влажн.,
%
обл.,
%
осадки,
мм/ч
давл.,
гПа
погр.,
м
25 мая, ср
ср2500:00+22ссз11630 0.0 101211
03:00+22ссв11630 0.0 101211
06:00+22всв22560 0.0 101312
09:00+23ююв33590 0.0 1015148
12:00+23ююв33660 0.0 1015309
15:00+23ююв33658 0.0 1015293
18:00+23зсз33655 0.0 1015222
21:00+23зюз00681 0.0 101511
26 мая, чт
чт2600:00+23сз22620 0.0 101513
03:00+23ссз11620 0.0 101512
06:00+23с11580 0.0 101514
09:00+24ю33570 0.0 1016118
12:00+23юв44680 0.0 1016299
15:00+23юв33665 0.0 1015200
18:00+23ююз11664 0.0 1015143
21:00+23св11690 0.0 101511
27 мая, пт
пт2700:00+23сз22640 0.0 101412
03:00+24с22571 0.0 101315
06:00+24ссв33524 0.0 101221
09:00+27зюз21470 0.0 1012259
12:00+24юв34600 0.0 1013274
15:00+25юв225713 0.0 1012142
18:00+26з11534 0.0 101189
21:00+25сз33500 0.0 101111
28 мая, сб
сб2800:00+25с22480 0.0 101012
03:00+24ссв11510 0.0 100814
06:00+25св33460 0.0 100816
09:00+26ю22450 0.0 1008194
12:00+24юв44650 0.0 1009250
15:00+25юв34620 0.0 1009261
18:00+25з11624 0.0 1008123
21:00+25всв006124 0.0 100912
29 мая, вс
вс2900:00+25с11570 0.0 100912
03:00+24с11580 0.0 100912
06:00+24всв11550 0.0 100911
09:00+24юв33600 0.0 1011114
12:00+24ююв33620 0.0 1012236
15:00+24ююв22620 0.0 1011214
18:00+25зюз11571 0.0 1011245
21:00+24зсз22650 0.0 101111